Wind_Speed
14 17 18 19 18 17 16 16 15 13 10 9 10 10 8 4 3 2 1 0 2 3 3 2 1 3 4 4 3 4 4 2 0 3 3 3 3 4 4 5 4 4 3 2 2 2 1 2 7 10 11 12 12 12 12 12 11 11 11 9 7 7 8 7 7 8 11 11 11 11 9 8 8 8 9 9 8 9 9 7 6 5 4 1 1
13 16 17 17 17 16 16 16 15 13 11 10 10 10 7 4 3 1 0 1 2 3 2 2 3 4 4 3 3 4 4 2 2 5 4 2 2 3 4 4 4 2 2 2 0 1 2 1 5 8 11 11 12 12 12 12 11 11 10 9 8 8 8 7 6 6 7 9 10 11 10 9 8 9 9 8 8 8 9 8 7 7 5 4 3
13 13 14 16 16 15 15 15 15 14 12 10 10 10 7 4 2 0 1 2 2 2 2 3 3 4 4 4 4 4 5 3 4 7 6 4 3 2 3 4 3 1 1 2 1 1 2 1 3 7 11 12 12 11 12 12 11 10 9 8 9 9 10 10 9 8 6 6 8 10 10 10 10 10 10 10 9 9 10 9 9 8 7 6 6
12 12 14 16 16 15 15 16 17 16 13 11 11 10 7 4 2 1 2 2 1 1 2 3 4 4 4 4 4 4 4 3 4 8 8 6 4 3 3 3 3 2 1 2 1 1 1 2 4 8 11 13 12 11 11 11 10 9 9 10 10 11 12 13 13 12 10 8 7 8 10 11 12 12 12 12 11 11 11 10 10 10 9 9 9
11 11 12 13 14 14 15 16 17 16 14 12 11 9 7 5 3 2 1 1 0 0 2 3 3 3 2 2 2 3 3 2 3 6 8 8 6 5 4 4 4 4 3 3 2 1 2 3 5 9 11 11 11 10 10 9 9 10 11 12 13 13 14 15 15 15 14 12 9 9 11 13 14 15 15 14 13 13 13 13 12 12 11 11 11
10 10 10 11 13 15 16 17 18 17 14 13 12 10 8 6 4 3 3 2 2 3 5 7 7 7 7 6 3 1 1 2 3 4 6 7 7 7 6 6 7 7 7 6 5 4 3 3 5 7 9 9 9 9 8 8 8 9 10 11 13 15 16 17 17 17 17 16 13 12 13 14 16 17 17 17 16 15 14 14 13 13 12 12 13
9 9 11 12 15 17 17 18 18 17 16 16 15 12 9 7 5 4 4 5 5 4 6 6 6 7 8 8 7 5 4 2 2 3 5 5 6 6 6 7 9 9 9 9 8 7 7 7 7 7 7 7 7 8 7 8 8 10 10 11 12 14 16 18 19 19 19 18 16 14 14 15 17 18 18 18 18 18 17 17 16 15 14 14 14
10 11 13 15 16 16 17 17 18 18 17 16 14 12 10 8 6 4 5 7 7 6 5 5 4 5 5 5 5 5 5 4 3 0 3 4 4 4 4 6 9 10 9 8 7 7 9 11 11 10 9 9 9 9 9 9 10 10 10 10 10 11 13 15 17 18 19 19 18 16 15 16 17 18 18 19 19 19 19 18 18 17 16 16 16
12 12 14 16 16 15 16 17 17 17 15 12 12 14 13 11 9 7 6 7 8 7 5 4 4 3 3 2 2 3 4 4 5 4 2 3 4 4 4 5 7 8 7 7 7 7 9 11 12 12 12 12 12 12 10 10 10 9 9 9 9 9 10 12 14 15 17 19 20 19 18 18 19 20 20 20 19 19 18 18 19 19 18 18 18
13 13 15 16 15 14 16 18 18 15 13 13 15 16 15 14 14 12 9 9 8 7 6 5 5 4 3 1 1 2 2 3 4 5 5 4 3 3 5 5 6 7 7 7 8 9 9 10 11 12 12 12 12 12 12 11 11 11 11 11 10 10 11 12 13 15 17 19 20 21 20 20 20 21 21 21 20 19 20 20 20 21 21 20 19
13 13 13 14 15 16 17 18 19 17 15 16 17 17 15 15 15 13 11 11 10 9 8 7 6 5 4 3 2 2 2 2 3 4 5 5 4 3 3 5 6 7 7 7 8 8 9 10 10 12 13 13 13 13 13 13 13 13 14 14 13 14 14 14 15 16 18 19 20 20 21 21 21 21 22 22 21 22 22 22 22 23 23 22 21
14 13 12 12 15 17 16 16 16 16 16 17 17 17 16 15 16 15 13 12 11 10 9 8 7 7 6 5 5 4 4 4 3 3 4 5 5 5 5 5 6 6 7 8 8 9 10 11 12 13 14 15 15 16 16 16 16 17 17 17 17 17 17 18 18 19 20 20 20 21 21 21 21 22 23 23 22 23 23 24 24 24 24 24 23
15 15 14 12 12 14 14 14 14 14 15 17 17 17 17 16 16 16 14 14 14 12 11 10 9 9 8 7 7 7 7 6 6 6 6 6 6 7 8 8 8 8 8 8 9 10 11 12 13 14 15 16 17 18 18 19 19 19 20 20 20 20 20 20 20 21 21 21 22 22 22 21 22 22 23 24 24 25 26 26 26 26 25 25 24
16 16 16 14 14 14 14 14 15 15 15 16 15 16 17 17 16 15 15 15 15 14 13 13 12 12 11 9 8 9 9 9 9 9 9 9 8 9 10 11 12 12 11 11 11 11 11 11 12 13 14 15 16 17 18 19 19 20 20 20 20 21 21 21 21 22 23 24 25 26 25 24 24 23 23 24 26 27 28 28 27 27 26 26 24
21 21 20 19 19 18 17 16 16 15 14 13 13 13 14 14 14 14 14 15 15 15 14 14 14 13 13 11 10 10 11 11 12 12 12 12 12 12 12 13 14 14 15 15 15 15 15 15 15 15 15 15 16 17 18 19 20 20 21 21 21 21 22 22 22 23 24 25 27 28 28 27 27 26 25 25 26 26 26 26 25 26 26 25 24
25 24 23 21 20 19 18 17 15 14 12 11 11 10 10 10 10 11 11 12 13 13 14 13 13 12 12 12 12 12 12 12 13 14 15 15 15 16 16 16 16 17 17 17 18 19 19 20 20 20 20 20 20 20 21 22 23 23 23 23 23 23 23 24 24 25 26 27 28 29 30 30 29 28 28 27 26 27 27 26 26 27 26 25 23
23 21 21 19 18 17 16 14 14 13 11 9 9 8 7 7 7 7 8 8 8 10 11 11 11 11 11 11 11 12 14 15 15 17 17 18 19 19 20 20 21 21 21 21 21 22 21 22 22 23 23 23 24 25 26 28 28 28 28 27 27 27 26 26 27 28 29 30 31 32 31 31 30 30 29 29 29 29 30 29 29 29 28 26 24
17 16 16 15 14 13 12 11 11 10 8 7 7 5 5 4 4 4 5 5 6 6 7 8 9 10 10 11 11 12 13 14 16 17 19 19 20 21 22 23 24 24 25 26 26 26 26 26 26 26 26 25 25 26 28 29 30 30 30 31 31 31 29 29 30 30 31 32 35 36 33 30 29 28 28 28 30 31 31 28 27 29 28 27 25
12 11 10 9 8 8 7 6 5 5 4 4 3 1 1 1 2 3 4 5 6 7 7 8 9 10 11 12 13 13 14 14 15 16 18 19 20 21 22 23 23 24 25 27 27 28 28 28 28 28 29 28 27 27 28 28 29 29 30 31 31 30 29 29 31 31 32 33 36 37 34 30 30 29 27 29 30 31 29 27 26 29 30 29 26
9 9 8 6 5 4 3 3 2 2 2 3 4 5 6 7 7 8 9 9 10 11 12 13 13 14 14 15 16 17 17 18 18 19 19 20 21 22 22 23 24 25 25 26 26 27 27 27 27 27 27 28 27 27 27 27 26 27 28 29 30 28 27 27 28 28 30 31 33 34 33 31 30 29 28 30 30 29 28 27 26 28 28 25 22
9 8 7 6 5 4 4 5 6 5 6 7 8 10 12 13 13 13 14 14 15 16 17 18 19 19 20 20 21 21 22 23 23 24 25 25 26 26 26 27 28 29 29 29 29 29 28 27 26 26 25 26 26 25 24 24 23 24 25 26 26 26 25 25 24 25 27 29 29 31 32 31 30 30 30 31 30 30 29 27 25 23 20 17 16
9 9 8 8 8 8 7 8 8 8 8 9 9 11 14 15 16 17 17 18 19 19 20 21 22 22 23 23 24 25 26 27 28 28 29 30 30 31 32 32 33 34 35 35 35 34 33 32 31 29 27 26 26 26 24 23 23 24 24 23 23 24 25 24 23 23 25 27 27 28 29 30 31 31 31 31 31 30 29 26 22 19 15 13 12
10 10 9 9 10 10 11 11 11 11 11 12 12 12 14 15 16 17 18 20 20 21 22 23 24 24 24 24 24 25 26 27 28 29 30 31 31 33 34 35 35 37 38 39 39 39 39 38 36 34 32 30 29 28 27 26 26 26 25 23 23 24 25 26 25 25 25 25 25 26 28 29 32 33 33 33 32 29 25 20 16 14 12 11 11
11 10 9 9 9 9 10 11 11 12 12 13 14 14 15 16 17 18 19 20 21 21 22 23 25 26 26 26 26 26 27 27 27 28 29 30 30 31 33 34 35 36 37 38 39 40 40 40 40 39 37 35 33 32 32 31 29 28 25 23 23 24 25 27 27 26 26 26 26 27 28 30 33 35 35 34 30 26 21 17 14 12 11 11 12
11 10 10 10 10 10 10 11 11 12 13 14 14 15 16 16 17 18 19 19 20 21 22 23 24 25 26 27 27 27 27 28 27 27 28 29 30 30 30 32 33 35 36 36 36 37 38 38 38 38 38 37 35 34 34 34 33 30 27 25 24 24 25 26 26 26 27 28 28 28 30 32 34 36 33 29 26 22 18 14 12 12 12 12 13
11 11 11 11 11 12 12 12 13 14 14 15 16 17 17 18 18 18 19 20 21 21 22 23 24 25 25 26 27 27 27 27 27 27 27 28 29 29 29 30 30 32 34 34 35 35 35 35 36 36 36 36 35 34 34 34 34 31 28 26 25 25 25 25 26 27 28 28 28 30 32 33 34 33 30 26 22 19 15 12 12 12 12 12 13
11 12 12 12 13 13 13 13 14 14 15 15 16 17 17 18 18 18 18 19 19 20 20 21 21 22 23 24 25 25 25 25 25 26 26 27 27 28 29 29 28 29 30 31 32 33 34 34 34 33 32 31 31 32 33 33 32 31 29 27 25 25 25 26 27 28 28 28 28 31 32 31 28 27 25 22 19 16 13 12 13 12 11 11 13
12 12 13 13 13 14 14 14 14 14 15 15 16 16 16 16 15 15 16 17 17 18 19 19 20 21 23 24 24 25 25 25 25 24 24 24 25 25 26 26 25 25 25 26 28 30 31 31 30 29 28 27 27 28 29 29 28 28 27 26 25 25 25 26 27 27 26 26 27 29 30 28 26 23 21 18 16 14 13 13 12 11 10 10 12
14 14 14 14 14 14 14 14 14 14 14 14 13 13 14 14 14 14 15 16 17 18 19 20 20 21 23 23 24 26 27 27 26 25 24 23 22 23 23 23 22 22 21 22 25 27 27 27 26 26 25 25 25 25 25 25 25 25 25 25 25 25 25 25 25 25 24 25 26 28 29 28 25 24 22 19 16 15 13 12 11 9 9 10 12
15 15 15 15 15 14 14 13 12 12 12 11 11 10 10 11 13 13 14 14 15 16 18 19 20 21 23 24 25 26 28 29 27 26 24 22 20 20 21 21 21 20 19 20 23 25 25 24 23 23 23 24 24 23 23 23 24 24 24 24 24 24 23 23 23 23 22 23 26 30 30 27 25 25 24 20 18 16 14 12 11 10 10 10 11
16 16 15 16 15 14 12 11 9 9 9 11 11 10 8 7 8 11 13 13 13 14 15 16 18 20 22 24 25 25 26 26 26 25 23 21 20 19 18 17 18 19 18 20 22 24 24 24 23 22 22 22 22 21 20 20 20 19 19 19 19 20 20 20 21 22 23 24 29 30 28 26 26 25 23 20 18 16 14 12 11 10 9 9 9
16 15 15 15 14 12 10 9 8 8 9 10 11 12 11 8 6 9 12 13 13 13 13 14 16 18 20 22 23 24 24 24 24 23 22 20 18 17 15 15 15 15 16 20 23 23 22 23 23 22 22 23 22 19 18 17 16 16 17 17 17 18 19 19 21 24 26 30 33 31 27 26 24 22 20 18 16 14 13 12 10 10 9 9 9
15 14 14 14 13 11 9 9 8 9 10 11 12 14 15 15 14 13 14 15 14 12 11 13 15 17 19 20 22 22 23 22 22 21 19 17 15 14 13 12 12 13 15 19 22 22 21 21 21 22 23 23 21 18 16 15 15 15 17 18 18 18 20 21 22 28 32 33 31 28 25 24 21 19 18 17 14 12 12 11 10 10 9 8 7
16 15 14 14 14 12 10 9 9 10 11 12 14 15 17 19 20 19 19 18 17 13 11 12 15 16 17 18 19 20 20 20 19 18 17 15 15 14 13 11 10 12 16 19 20 21 21 21 21 22 22 22 19 17 16 16 15 16 17 18 19 20 22 24 27 32 32 29 26 24 22 21 20 19 17 16 14 13 12 11 10 9 7 6 6
15 15 14 14 14 12 10 9 10 11 11 12 14 16 17 19 21 21 21 20 19 15 13 13 15 16 17 18 19 20 21 20 18 16 15 14 14 14 14 13 12 14 17 18 19 20 20 21 21 20 21 20 19 17 16 16 15 16 16 18 20 22 23 25 26 28 25 22 21 20 19 19 18 16 14 13 13 12 11 10 9 7 5 5 4
15 16 15 15 14 13 10 10 10 11 11 12 13 15 17 19 20 21 20 19 18 17 15 15 15 16 16 18 20 21 22 22 19 16 14 14 14 14 15 15 15 16 18 19 19 18 18 18 17 17 17 17 17 16 16 15 15 16 17 17 18 18 20 20 21 21 21 20 19 17 16 16 15 13 12 12 11 10 9 8 7 6 5 4 3
16 17 16 14 14 13 10 8 9 9 10 11 12 13 15 17 19 20 20 18 17 17 17 16 16 16 16 18 20 21 23 22 18 14 13 14 15 15 16 16 17 17 18 18 16 15 15 15 15 14 14 14 15 15 15 15 15 15 14 13 15 18 21 21 20 20 19 19 18 16 15 14 13 12 11 10 9 8 8 7 6 5 4 4 3
15 17 16 13 13 12 9 6 6 8 9 10 11 12 14 16 17 19 19 18 17 16 17 17 18 18 19 19 20 21 22 20 16 13 13 13 14 14 15 15 15 15 13 12 11 10 12 13 13 12 13 13 11 10 10 11 11 13 16 18 19 21 22 23 22 20 17 16 15 13 13 13 12 11 10 8 7 7 7 6 6 5 5 4 4
13 15 15 13 11 10 9 6 5 7 8 9 10 11 13 15 16 17 19 18 17 17 17 17 18 19 19 19 19 19 20 19 17 16 16 15 14 12 11 10 11 11 10 10 9 7 8 11 11 11 12 12 9 6 6 8 13 18 20 20 21 22 22 21 19 16 14 13 13 12 12 12 12 11 9 7 6 6 5 5 6 6 6 6 5
12 13 14 13 11 9 8 7 6 7 9 9 10 11 13 15 16 16 18 18 19 18 17 17 18 19 18 17 17 17 17 17 17 17 17 16 15 13 11 10 10 9 7 6 5 4 5 8 10 11 11 10 6 4 9 15 19 20 19 19 21 20 19 18 16 14 12 13 13 12 11 11 11 9 7 6 5 5 4 5 8 9 7 6 6
11 12 13 13 12 10 9 8 8 8 9 10 11 12 14 15 15 15 16 18 19 17 15 15 17 17 16 14 14 15 15 14 14 15 15 15 13 11 9 10 12 11 9 8 8 6 6 8 9 10 9 5 3 11 16 19 20 18 18 19 18 16 16 16 14 12 12 12 11 10 10 9 8 7 6 5 4 4 5 8 9 9 7 6 6
11 12 12 13 13 12 10 8 9 10 10 11 13 13 15 15 14 13 15 18 18 14 12 13 15 14 12 11 13 14 14 13 12 12 13 12 12 10 9 11 12 12 12 12 11 7 5 6 6 6 6 3 7 14 17 16 15 16 16 16 15 15 16 15 13 12 11 10 9 8 8 7 7 5 4 4 4 5 8 10 9 7 6 6 7
10 11 11 12 13 13 12 10 9 9 10 11 12 13 13 13 12 12 14 17 16 11 9 11 13 12 10 11 13 14 13 13 12 12 13 13 12 11 10 9 10 11 12 13 13 10 6 3 2 2 2 3 9 12 12 11 12 13 13 14 14 14 14 13 13 12 9 7 7 7 7 6 6 4 4 4 5 7 9 10 8 7 6 6 6
8 11 11 11 12 13 13 12 11 10 8 9 10 10 10 10 11 11 12 14 13 9 8 9 11 11 11 12 14 14 14 14 13 13 13 13 14 13 11 10 9 10 10 11 13 12 8 3 0 3 6 8 11 12 12 12 12 12 12 12 13 13 13 13 11 8 6 4 5 5 5 5 4 3 3 4 6 7 7 7 6 6 6 5 5
7 10 11 10 11 13 13 13 12 11 7 6 6 7 8 9 9 8 8 10 10 8 7 8 10 11 12 13 14 15 15 15 14 13 12 11 12 12 12 11 9 8 8 10 11 11 10 6 3 6 10 13 14 14 13 13 13 12 12 12 12 12 12 10 8 6 4 2 2 3 4 4 3 3 3 4 5 6 6 5 5 6 6 6 6
6 9 11 10 10 12 13 13 12 10 7 5 5 7 8 7 5 5 6 8 9 8 8 8 10 12 13 13 14 16 17 17 17 16 14 12 11 11 12 11 9 7 6 7 8 8 8 7 8 12 15 15 15 15 14 14 14 13 12 12 11 9 8 7 6 4 2 0 1 2 2 2 2 3 3 4 6 7 6 5 5 5 5 6 7
5 8 10 10 10 10 12 14 12 9 6 5 6 7 7 5 6 6 6 7 9 10 9 9 10 11 12 13 15 16 18 18 18 19 18 17 16 15 14 12 11 9 7 6 6 6 7 9 12 14 15 15 14 14 13 13 12 12 10 9 8 6 5 4 4 3 2 1 3 3 3 2 2 3 4 5 7 7 7 5 4 3 4 6 7
4 7 10 10 9 9 11 13 13 11 8 7 7 7 6 7 8 6 6 8 9 9 9 9 10 11 12 14 15 16 17 17 18 20 20 20 20 20 18 16 15 13 11 10 10 9 9 11 11 11 12 13 14 13 12 11 9 8 7 5 4 4 3 3 3 3 2 3 4 3 3 2 2 3 4 6 7 7 6 4 2 2 4 6 6
3 6 8 10 9 8 9 11 12 12 10 8 7 7 8 9 8 7 7 8 8 8 8 9 11 12 13 13 13 13 13 14 15 16 17 18 18 18 17 17 16 15 14 14 14 13 11 10 10 10 11 13 13 11 9 7 6 4 3 3 3 4 3 3 3 3 3 4 4 3 3 2 3 4 5 6 7 7 6 4 4 4 6 7 6
2 4 6 9 9 8 7 8 10 12 12 10 8 7 8 9 8 7 6 6 7 7 8 9 11 12 13 12 12 11 10 11 11 11 12 12 11 11 11 11 12 12 12 12 12 11 10 9 9 9 11 11 10 8 6 5 3 2 2 1 2 3 3 4 4 4 4 5 4 4 4 4 5 5 6 6 7 6 5 6 7 7 7 7 6
3 4 5 7 8 8 7 6 7 9 10 10 8 7 7 7 7 6 5 5 6 8 8 9 10 11 11 11 11 10 9 9 10 10 10 10 9 9 8 8 9 9 10 9 9 9 9 8 9 10 10 10 9 7 7 7 6 6 5 5 4 4 5 5 6 6 6 6 7 7 7 7 6 6 6 6 6 5 4 5 7 7 7 6 6
Wind_Direction
193 195 197 195 191 192 195 194 191 193 193 186 178 177 176 165 138 115 103 56 355 348 337 318 246 214 217 227 215 202 228 275 220 172 171 174 170 158 161 174 185 186 195 236 274 314 316 214 201 197 192 188 189 189 188 193 207 214 215 215 201 181 175 170 161 161 164 169 176 183 184 182 181 178 178 179 181 188 191 196 207 204 197 208 342
202 202 201 197 194 197 199 196 193 197 196 185 178 179 178 166 147 125 115 308 332 330 302 248 226 219 219 229 217 209 229 260 200 180 175 178 186 176 172 176 176 180 200 215 234 24 36 137 191 190 184 182 182 187 193 199 204 206 208 213 214 210 207 204 197 192 190 185 185 191 193 192 192 188 183 180 183 192 197 204 218 221 229 255 285
206 204 201 199 196 197 201 200 199 201 198 189 183 182 181 176 171 195 288 302 323 309 255 221 215 216 218 226 226 226 244 254 200 189 186 187 198 204 200 189 171 152 206 199 159 70 52 105 176 179 175 174 175 182 189 193 197 200 202 208 217 226 229 228 224 220 220 216 210 209 204 200 199 195 189 187 189 197 203 212 226 235 250 264 270
210 208 201 197 196 198 202 203 203 202 200 192 184 182 185 189 189 239 270 287 317 294 244 215 212 218 221 226 232 239 252 247 203 196 195 192 196 207 215 209 195 196 234 227 192 142 110 142 172 171 168 168 170 178 187 193 201 211 217 221 228 235 240 241 239 234 233 237 241 233 217 208 204 200 197 197 198 204 211 221 235 248 261 266 269
204 205 197 192 198 202 201 200 201 203 202 192 183 184 189 186 179 192 222 239 1 99 143 148 151 146 151 187 216 233 243 226 193 196 200 200 201 207 214 212 204 208 221 230 237 222 155 157 170 168 167 170 174 181 191 199 207 216 226 235 240 243 246 248 248 245 241 243 253 248 227 215 209 205 205 206 208 213 219 226 237 248 258 264 270
202 198 190 195 208 208 201 199 200 204 203 192 183 182 180 177 178 180 158 143 129 121 126 125 116 101 87 82 97 129 201 195 179 185 197 206 212 217 219 212 206 210 217 222 230 231 211 188 181 177 175 176 179 186 192 200 213 229 241 245 246 245 244 246 248 250 249 248 253 252 237 224 214 208 209 213 219 225 229 233 240 248 255 260 265
192 187 183 193 205 205 200 199 201 204 202 193 186 183 177 172 173 168 157 160 160 138 123 116 107 99 88 79 81 82 77 93 165 193 207 215 224 232 232 219 209 211 220 229 232 226 214 207 203 200 198 197 198 207 219 232 246 255 258 256 253 250 247 247 249 252 253 250 249 250 242 230 221 215 214 217 222 229 234 239 244 249 254 259 265
174 174 177 186 195 199 200 201 204 207 203 194 192 198 200 193 182 169 171 181 179 161 136 121 112 108 99 86 78 73 68 60 50 272 236 234 235 249 254 234 218 213 219 229 231 222 211 210 211 216 223 228 230 235 247 259 263 262 261 260 258 253 251 250 250 251 253 251 250 251 248 238 230 225 223 225 229 234 239 243 246 251 256 260 264
168 168 176 183 189 198 203 204 206 209 206 205 214 218 217 223 227 216 201 201 196 183 166 156 152 142 121 94 60 52 50 39 29 19 342 265 247 252 262 250 223 209 211 220 221 217 213 213 217 223 230 236 239 242 248 255 259 264 269 270 266 259 254 250 247 247 247 248 250 253 250 243 237 233 232 237 242 246 249 250 249 251 254 256 260
164 163 170 172 177 194 204 203 205 210 212 220 226 221 215 221 227 218 208 212 208 199 196 191 184 182 175 173 344 4 19 14 5 1 359 343 295 261 255 253 233 214 213 219 219 221 222 224 228 232 236 240 242 244 245 246 252 261 267 270 270 267 263 258 253 250 248 250 253 254 252 249 246 242 242 245 246 246 248 252 253 252 252 253 255
157 157 166 170 179 194 200 198 202 208 211 212 214 214 211 211 211 206 206 213 214 213 218 218 208 201 198 209 242 276 308 330 337 334 332 330 326 311 273 257 251 244 241 237 235 235 238 241 243 244 246 248 250 252 252 251 254 258 262 265 267 266 265 264 261 257 255 255 256 255 254 255 255 252 250 248 246 245 247 251 254 254 253 254 254
143 144 151 161 176 188 194 197 201 205 206 206 206 208 208 208 207 206 206 211 216 220 228 232 229 223 220 225 236 245 251 256 265 280 285 285 290 295 292 277 268 266 265 264 263 262 260 261 260 258 256 256 257 260 261 261 260 260 261 263 264 265 264 264 264 263 261 260 259 257 257 258 259 257 256 256 255 253 252 252 254 255 254 254 254
132 134 136 140 152 165 178 188 190 190 196 202 205 207 209 209 209 208 208 214 220 223 229 236 238 237 238 240 245 249 250 250 253 253 251 252 255 263 271 274 274 273 273 274 275 273 272 271 268 267 267 265 265 266 267 269 268 267 268 269 270 270 268 266 266 265 264 263 262 261 261 261 261 261 261 261 259 256 255 255 255 255 254 253 254
127 127 128 130 133 139 152 165 172 176 183 192 198 202 205 206 206 208 211 216 221 225 232 236 238 240 243 245 247 250 251 251 254 257 256 252 248 249 253 258 262 266 268 269 271 272 272 271 270 269 269 270 271 270 271 273 275 275 277 278 279 278 275 273 271 268 265 263 262 262 263 264 266 267 266 262 258 257 258 259 258 255 251 249 250
123 121 120 119 119 124 131 140 149 157 165 178 188 192 196 201 205 209 213 218 222 227 232 236 238 239 240 243 247 250 252 254 257 260 262 261 259 256 254 253 254 256 258 260 263 265 267 268 269 268 268 270 271 272 274 276 278 279 281 283 283 283 281 281 279 276 271 266 263 263 264 265 267 268 266 263 261 260 259 257 254 250 245 244 247
117 116 115 112 110 111 115 120 125 129 136 151 167 174 180 189 199 206 213 222 227 231 235 238 240 241 240 243 250 257 261 264 265 266 268 269 268 267 265 264 262 260 259 258 259 260 262 264 266 267 268 269 270 271 274 275 276 278 279 281 283 283 283 283 282 281 278 274 270 267 265 265 265 265 263 260 260 258 253 246 242 241 240 241 245
111 111 109 107 105 105 106 109 111 111 115 124 133 141 150 161 177 190 203 216 224 232 239 244 247 250 251 253 259 266 271 273 273 274 274 273 273 273 273 272 272 272 270 268 267 266 264 264 265 266 267 267 268 270 271 273 275 276 277 279 280 280 280 280 279 280 280 280 279 274 268 263 261 259 257 254 254 254 249 243 242 243 241 238 243
94 99 101 100 98 99 101 106 110 113 118 121 121 123 130 145 165 182 198 214 223 233 243 249 254 258 262 264 265 267 269 271 272 272 273 273 273 273 274 274 274 274 274 273 272 271 270 269 268 268 268 268 268 269 270 271 272 273 274 275 274 273 274 275 276 276 277 279 278 274 267 261 259 257 255 253 253 253 250 246 246 245 241 241 249
67 72 77 80 82 83 84 90 104 117 122 119 117 128 202 246 255 258 258 257 259 261 262 264 265 267 270 272 272 271 270 271 272 272 272 272 272 271 271 272 271 271 271 271 270 270 270 271 271 272 273 272 271 271 272 272 271 271 272 273 273 274 274 275 276 276 276 276 276 274 273 273 272 267 261 255 252 250 249 246 244 243 242 245 251
51 45 40 42 44 37 24 8 350 318 298 303 307 306 304 299 291 286 281 277 275 274 274 274 274 275 275 275 275 275 274 275 276 277 277 276 276 275 275 274 273 272 270 270 270 269 269 270 271 271 272 272 271 271 272 274 274 274 274 275 278 280 280 279 280 281 281 278 277 277 280 280 276 269 262 257 252 249 250 249 245 243 243 242 243
41 33 24 18 8 353 338 329 325 314 298 292 291 293 298 299 296 292 289 286 282 280 279 279 279 279 279 279 278 278 278 278 279 280 281 282 281 280 280 280 280 279 278 277 276 275 274 273 271 269 268 268 266 264 265 269 272 273 273 275 279 281 281 281 282 284 285 283 281 281 280 277 272 267 262 259 255 252 251 247 240 239 237 232 233
24 14 5 357 352 349 344 336 332 326 318 310 300 295 296 298 296 294 293 291 290 289 287 285 284 283 282 282 281 280 279 279 279 280 281 283 283 282 282 281 281 281 281 280 280 279 278 277 275 273 270 268 265 262 260 261 263 266 269 273 277 279 280 279 278 278 280 282 284 283 278 272 267 263 258 252 247 244 242 237 231 229 229 229 235
11 3 355 351 348 347 347 346 343 339 335 330 323 317 311 307 304 301 299 297 297 296 294 293 291 290 288 287 286 284 282 281 280 280 280 281 281 281 281 280 279 279 279 279 279 278 277 277 276 274 272 270 267 265 262 260 261 263 267 270 274 276 275 274 273 271 270 274 279 281 276 269 262 257 252 245 238 233 229 226 226 229 235 243 252
4 0 357 356 351 345 343 342 340 338 335 330 325 320 316 311 309 306 304 302 301 299 298 296 294 292 291 289 287 286 285 284 283 282 281 281 280 279 279 279 279 278 277 277 277 277 277 276 275 273 272 270 268 266 264 263 262 263 267 270 271 271 272 272 272 269 265 265 267 270 270 266 260 252 246 238 230 224 221 222 225 231 242 257 268
5 5 5 4 359 353 347 342 337 334 331 327 323 320 317 315 313 311 309 307 304 302 300 298 296 295 293 291 289 287 286 285 284 283 281 280 279 277 275 275 276 276 276 276 276 277 277 277 275 274 272 271 268 265 263 261 261 261 263 265 267 269 271 272 272 269 265 263 263 264 265 263 257 248 237 228 221 218 218 219 224 235 251 267 279
9 9 7 3 358 353 348 344 341 338 334 331 328 326 323 321 319 317 315 311 308 306 303 302 301 299 298 297 295 293 291 289 287 286 283 281 279 277 274 272 271 271 273 274 276 277 278 278 278 277 276 273 271 268 263 260 259 259 258 260 264 266 268 270 271 270 268 266 264 261 256 251 243 232 220 213 212 213 213 215 226 241 259 277 286
11 7 4 359 354 349 345 342 341 338 334 333 331 329 327 326 323 321 318 314 312 311 308 307 306 303 301 299 297 295 293 291 289 287 286 284 283 281 278 275 272 270 270 272 273 275 276 278 280 280 280 279 276 272 268 265 263 261 259 260 261 262 265 267 269 269 268 265 263 257 246 232 217 208 203 203 205 207 208 216 232 249 268 283 288
9 4 359 356 352 348 346 345 342 339 336 336 336 334 332 330 330 330 327 323 322 320 318 316 314 311 308 305 303 302 299 296 295 294 292 292 290 287 283 279 275 272 270 269 269 270 272 276 278 281 282 281 277 274 272 269 267 264 262 261 260 261 264 265 264 265 265 263 260 251 233 213 199 200 204 204 203 205 209 221 239 259 273 280 283
7 3 359 356 353 351 350 348 345 342 341 343 345 345 342 339 340 341 338 334 331 328 325 323 320 316 314 312 310 308 306 306 307 307 306 304 300 295 291 286 279 272 267 266 266 266 267 271 276 280 282 280 277 274 270 267 266 263 261 260 260 261 262 263 264 265 264 260 249 231 211 198 196 202 205 202 202 208 217 229 244 256 264 270 273
7 5 4 2 1 360 358 355 353 352 353 355 1 7 7 359 356 355 351 344 339 334 328 326 324 320 317 316 315 313 313 314 315 314 313 311 307 302 297 290 283 275 266 263 265 266 267 269 273 278 282 281 276 272 268 264 260 257 256 257 258 259 262 263 263 261 257 246 228 210 198 193 196 199 199 199 202 208 217 228 238 245 252 257 259
10 9 10 8 6 6 6 6 6 7 9 11 13 19 28 29 17 9 3 354 345 337 329 324 324 324 323 323 322 319 316 315 313 312 312 313 313 309 302 290 280 273 267 265 266 269 272 271 271 276 283 283 277 273 270 265 260 258 258 260 262 265 269 268 261 255 243 221 205 199 197 196 195 193 194 200 204 208 215 223 230 237 240 240 242
9 9 9 7 4 4 6 9 12 14 19 24 23 18 17 21 19 11 8 3 354 342 331 327 330 335 337 334 330 326 323 320 317 316 317 318 317 313 304 291 278 271 270 271 273 277 279 276 273 275 281 282 279 274 272 271 269 268 267 269 271 274 275 272 261 245 225 205 196 196 196 193 191 191 194 200 205 209 215 220 226 230 228 228 238
7 7 6 4 2 2 6 11 16 21 26 29 27 20 16 13 8 1 0 0 357 351 346 343 344 345 343 337 334 333 332 331 329 327 325 322 318 313 306 297 286 280 279 280 282 285 285 281 278 276 276 277 276 274 274 273 272 272 272 274 275 275 274 269 249 226 210 200 196 192 186 184 187 191 194 198 204 210 215 218 218 217 219 228 247
12 8 6 4 2 4 10 16 22 29 31 29 24 20 18 15 10 3 357 354 354 357 1 357 352 350 347 344 342 340 338 336 333 330 326 322 318 315 313 310 300 292 289 288 289 289 287 285 283 278 272 271 271 271 272 271 271 273 274 273 271 267 263 252 231 210 201 196 191 184 180 183 189 191 192 195 200 204 208 209 208 209 219 239 254
14 12 7 3 1 5 15 25 29 30 30 27 21 18 17 16 12 7 3 1 1 5 12 10 5 3 2 359 356 352 347 342 334 327 322 319 316 315 314 311 305 297 294 293 294 293 291 289 285 279 275 273 271 270 270 269 269 271 272 272 268 258 243 227 208 193 186 185 183 181 183 187 189 190 194 198 197 195 195 196 200 210 229 244 253
15 15 10 3 1 5 18 31 30 24 22 21 17 13 14 14 10 7 7 9 10 12 14 12 10 7 3 359 356 353 350 345 337 328 321 316 314 313 311 308 304 299 295 294 296 298 297 292 286 283 283 280 275 272 269 267 268 269 268 266 256 234 208 189 177 170 168 173 181 186 188 186 185 185 188 189 186 182 184 192 205 218 229 235 239
14 13 10 4 359 1 15 30 23 14 14 13 9 8 11 10 6 5 6 8 9 8 6 2 359 359 357 354 353 351 351 350 346 337 326 318 313 309 306 302 299 296 295 295 298 303 302 292 283 283 283 280 276 271 266 267 270 263 244 222 203 186 171 162 160 163 167 174 184 188 184 180 179 177 176 179 179 178 187 200 210 214 212 207 201
12 8 4 360 354 354 4 15 9 4 6 3 359 1 5 5 2 1 4 5 3 1 357 353 351 350 349 349 351 352 354 358 0 353 343 334 322 312 305 299 295 293 292 291 295 305 303 291 283 288 294 293 286 273 266 266 253 223 199 185 176 169 161 157 159 165 170 175 180 178 172 169 169 168 170 180 188 190 198 206 203 194 183 166 153
10 4 359 354 347 344 347 350 345 345 350 352 350 351 357 360 357 355 358 0 358 354 352 351 349 348 346 345 346 350 353 359 1 0 1 3 359 351 343 331 318 307 295 286 288 296 294 287 293 311 321 316 304 281 253 224 201 190 183 176 168 162 157 156 158 161 162 161 162 164 163 163 165 167 170 182 194 201 205 199 182 166 152 140 132
8 4 0 357 349 337 332 330 326 326 332 336 336 336 343 350 352 351 352 353 352 351 352 353 352 351 350 348 349 352 357 1 3 3 6 12 16 16 17 16 6 353 333 320 324 326 305 300 314 330 333 325 304 239 199 187 182 179 173 166 161 158 156 156 155 151 146 147 154 163 167 166 167 170 174 180 190 195 187 169 157 150 143 134 126
5 4 1 0 357 348 331 317 307 306 311 315 318 322 329 338 344 347 346 346 348 351 355 357 358 359 1 3 6 6 6 9 11 8 8 12 17 20 30 41 40 37 32 23 13 356 333 326 326 328 330 324 210 183 180 177 172 167 161 159 158 154 150 148 143 135 133 141 153 162 166 167 167 166 167 173 179 169 153 148 147 145 139 125 112
1 2 359 358 359 358 350 330 310 300 297 301 307 313 320 329 337 341 340 341 346 354 0 3 5 7 12 21 25 22 18 17 18 18 17 19 21 24 36 49 50 46 41 32 24 13 0 345 330 322 320 282 188 177 173 167 159 154 152 152 149 143 137 132 126 125 131 142 154 161 162 160 156 154 159 166 160 147 146 147 143 135 125 111 100
356 357 356 355 356 359 360 355 339 320 306 301 305 309 315 324 332 335 337 342 348 358 9 9 8 12 26 37 38 34 29 26 24 23 24 25 24 23 29 41 44 41 37 32 28 30 31 5 329 5 63 150 161 156 147 140 137 136 137 137 135 130 124 119 122 131 140 149 156 158 156 151 147 149 152 148 143 145 148 144 133 119 113 103 91
352 355 356 355 355 357 0 2 357 344 324 311 312 315 318 323 327 331 338 346 352 2 14 13 13 24 41 46 42 40 38 36 32 28 26 28 27 25 26 32 36 36 33 28 28 35 42 37 151 110 107 119 127 125 122 121 120 119 120 120 118 115 112 116 128 139 141 137 142 149 152 148 144 144 142 140 143 145 139 125 113 111 117 116 101
346 354 356 356 356 359 3 5 3 0 356 346 336 327 318 317 323 335 350 356 1 12 24 25 30 41 46 42 39 39 39 37 34 30 28 28 29 28 30 33 32 29 24 20 24 36 43 42 69 106 107 105 105 107 109 111 110 109 107 103 100 102 109 123 143 155 146 121 116 140 151 152 147 142 135 134 139 139 128 116 120 130 134 131 115
341 354 358 357 357 2 7 6 7 14 24 18 346 322 317 325 348 19 23 20 25 36 40 40 44 48 45 39 36 36 35 34 33 33 33 33 30 30 34 35 33 34 31 21 19 31 47 66 93 103 102 100 101 104 107 108 107 107 105 101 101 109 125 146 169 184 193 169 127 145 159 165 154 140 124 126 143 146 136 122 122 121 114 117 117
337 356 358 356 357 4 9 10 11 15 14 355 339 339 351 29 70 71 49 41 47 50 47 47 52 53 48 42 37 34 34 35 37 39 41 41 38 38 41 43 41 43 50 48 40 49 76 100 107 102 97 99 105 109 108 107 107 106 105 109 119 132 152 174 193 216 235 200 160 162 171 165 145 133 125 129 140 143 132 120 113 96 88 110 127
336 356 358 357 357 1 8 13 17 15 8 2 6 18 45 89 103 88 62 59 63 61 55 56 59 58 52 43 36 34 36 39 41 43 45 45 43 42 43 45 46 48 55 67 77 85 98 107 108 102 100 105 108 105 101 101 102 104 109 126 151 178 208 221 219 215 197 165 155 160 162 150 137 134 130 124 121 119 118 115 99 79 99 110 113
332 352 357 1 2 0 4 13 19 19 18 24 35 49 73 96 102 91 78 76 77 76 71 66 63 61 55 46 39 36 39 44 47 48 49 48 46 44 45 51 57 62 68 77 86 94 103 111 113 110 107 107 104 99 97 100 104 114 136 174 203 217 222 216 201 181 159 145 143 143 144 141 134 132 131 123 111 103 96 79 64 84 108 108 93
309 336 349 0 6 6 8 13 18 20 23 28 40 60 81 95 99 98 97 97 96 95 90 77 67 62 58 52 46 43 41 43 45 49 52 54 51 49 54 65 75 81 85 91 97 103 111 118 119 111 105 104 103 104 106 109 110 116 135 163 185 186 180 172 163 151 138 134 132 127 124 125 124 121 121 119 110 97 79 68 73 81 87 88 82
280 308 330 349 2 10 15 17 15 18 24 28 33 51 81 98 104 104 103 103 106 107 103 89 73 64 58 56 56 55 56 56 54 53 56 60 61 62 67 75 82 88 92 97 102 107 111 112 105 96 92 93 96 99 100 99 94 90 88 92 105 120 127 129 128 123 119 117 115 113 110 108 107 106 108 108 103 93 76 69 77 81 78 72 67
Height
1516 1518 1518 1519 1522 1523 1525 1528 1530 1532 1533 1535 1536 1538 1539 1541 1542 1543 1543 1543 1543 1543 1544 1544 1544 1545 1546 1546 1547 1548 1549 1549 1550 1550 1551 1552 1552 1553 1554 1554 1555 1555 1556 1556 1556 1557 1557 1558 1559 1560 1561 1563 1565 1567 1569 1570 1572 1574 1575 1576 1577 1578 1579 1580 1580 1581 1581 1582 1583 1583 1584 1584 1585 1585 1585 1586 1586 1587 1587 1587 1587 1587 1587 1586 1586
1516 1517 1518 1520 1522 1523 1526 1528 1530 1532 1533 1534 1536 1537 1539 1540 1541 1542 1542 1543 1543 1543 1543 1543 1544 1544 1545 1546 1546 1547 1548 1549 1549 1550 1551 1551 1552 1553 1554 1555 1555 1556 1557 1557 1557 1557 1557 1558 1559 1560 1562 1563 1565 1567 1569 1571 1572 1574 1575 1576 1577 1578 1580 1580 1581 1581 1582 1582 1582 1583 1583 1584 1585 1585 1585 1586 1587 1587 1587 1587 1587 1587 1586 1586 1585
1515 1517 1519 1520 1521 1523 1526 1528 1530 1532 1533 1535 1536 1537 1538 1539 1540 1541 1541 1542 1542 1542 1542 1543 1543 1544 1545 1545 1546 1547 1548 1549 1549 1550 1550 1551 1552 1553 1554 1555 1556 1556 1557 1558 1558 1558 1558 1558 1559 1561 1562 1564 1566 1568 1569 1571 1573 1574 1575 1576 1577 1578 1579 1580 1581 1582 1582 1582 1582 1583 1583 1584 1584 1585 1585 1585 1586 1586 1587 1587 1587 1586 1586 1586 1585
1514 1517 1518 1519 1521 1523 1525 1527 1530 1531 1533 1534 1536 1537 1538 1539 1539 1540 1541 1541 1542 1542 1542 1542 1543 1544 1544 1545 1546 1547 1548 1548 1549 1549 1550 1551 1552 1553 1554 1555 1556 1557 1557 1558 1558 1559 1559 1559 1560 1561 1563 1564 1566 1568 1569 1571 1573 1574 1575 1576 1577 1578 1579 1579 1580 1581 1582 1582 1582 1582 1583 1583 1584 1584 1584 1585 1585 1585 1586 1586 1586 1586 1585 1585 1584
1512 1515 1518 1519 1521 1522 1524 1527 1529 1531 1532 1534 1535 1536 1537 1538 1539 1540 1540 1541 1541 1542 1542 1543 1543 1544 1544 1545 1546 1547 1547 1548 1549 1549 1550 1551 1552 1553 1554 1555 1556 1557 1558 1558 1559 1559 1560 1560 1561 1562 1564 1565 1566 1568 1569 1571 1572 1573 1574 1575 1576 1577 1578 1578 1579 1580 1581 1581 1582 1582 1582 1582 1583 1583 1584 1584 1584 1584 1584 1584 1584 1584 1584 1584 1583
1510 1514 1517 1519 1520 1521 1523 1526 1527 1529 1531 1532 1534 1535 1536 1538 1539 1540 1540 1541 1542 1542 1542 1543 1544 1544 1545 1545 1546 1547 1547 1548 1549 1550 1551 1551 1552 1553 1553 1554 1556 1557 1558 1558 1559 1560 1560 1561 1562 1563 1564 1566 1567 1568 1569 1571 1572 1573 1574 1574 1575 1576 1577 1577 1578 1578 1579 1580 1581 1581 1581 1581 1581 1582 1582 1582 1583 1583 1583 1583 1583 1583 1583 1582 1581
1509 1513 1516 1517 1519 1521 1523 1524 1526 1528 1530 1531 1533 1534 1536 1537 1538 1540 1541 1541 1542 1543 1543 1544 1544 1545 1546 1546 1547 1547 1548 1549 1549 1550 1551 1552 1552 1553 1553 1554 1555 1556 1557 1558 1559 1560 1561 1562 1563 1564 1565 1566 1568 1569 1570 1571 1571 1572 1573 1573 1574 1574 1575 1576 1577 1577 1578 1579 1580 1580 1580 1580 1580 1580 1581 1581 1581 1581 1581 1581 1581 1581 1581 1580 1580
1510 1513 1515 1516 1518 1520 1522 1524 1525 1527 1529 1531 1533 1534 1535 1537 1538 1540 1541 1542 1542 1543 1543 1544 1545 1546 1546 1547 1548 1548 1548 1549 1550 1550 1551 1551 1552 1553 1553 1554 1554 1555 1556 1557 1558 1559 1560 1562 1563 1564 1565 1566 1568 1569 1569 1570 1571 1571 1572 1572 1573 1573 1574 1574 1575 1576 1577 1577 1578 1578 1578 1578 1579 1579 1579 1579 1579 1579 1579 1579 1579 1579 1579 1579 1578
1511 1513 1514 1515 1517 1519 1521 1523 1525 1527 1528 1530 1533 1534 1534 1536 1538 1540 1542 1543 1543 1543 1543 1544 1544 1546 1547 1547 1548 1548 1549 1550 1550 1550 1551 1551 1552 1552 1553 1553 1554 1555 1556 1557 1558 1559 1560 1561 1563 1564 1565 1566 1567 1568 1568 1569 1570 1570 1571 1571 1572 1572 1573 1573 1574 1574 1575 1576 1576 1576 1576 1576 1577 1577 1577 1577 1577 1577 1577 1577 1577 1577 1577 1577 1576
1511 1512 1513 1515 1516 1518 1520 1522 1524 1526 1527 1529 1532 1533 1534 1535 1537 1539 1541 1542 1542 1542 1543 1543 1544 1545 1546 1547 1548 1548 1549 1549 1550 1550 1551 1551 1551 1552 1552 1553 1554 1555 1556 1557 1558 1559 1560 1561 1562 1563 1564 1565 1566 1566 1567 1567 1568 1568 1569 1569 1570 1571 1571 1572 1572 1573 1573 1574 1574 1574 1574 1574 1574 1574 1574 1575 1575 1575 1575 1575 1575 1575 1575 1574 1574
1510 1512 1514 1515 1517 1518 1520 1522 1523 1525 1527 1529 1531 1532 1534 1535 1537 1538 1540 1541 1541 1542 1542 1543 1543 1544 1544 1545 1546 1547 1548 1549 1549 1550 1550 1551 1551 1551 1552 1553 1554 1555 1555 1556 1557 1558 1560 1561 1562 1563 1564 1564 1565 1565 1566 1566 1566 1567 1567 1568 1568 1569 1570 1570 1571 1571 1572 1572 1572 1571 1571 1571 1571 1572 1572 1572 1573 1573 1573 1573 1572 1572 1572 1572 1571
1510 1512 1514 1516 1517 1519 1521 1522 1523 1524 1526 1528 1530 1531 1533 1534 1536 1538 1538 1539 1540 1541 1541 1542 1543 1543 1544 1544 1545 1546 1547 1547 1547 1548 1548 1549 1550 1550 1551 1552 1553 1554 1554 1555 1556 1557 1558 1560 1561 1561 1562 1563 1564 1564 1565 1565 1565 1566 1566 1566 1567 1567 1568 1569 1569 1569 1569 1569 1569 1569 1569 1569 1569 1569 1569 1569 1570 1570 1570 1570 1570 1569 1569 1569 1569
1511 1512 1515 1516 1518 1520 1522 1523 1523 1524 1526 1528 1529 1531 1532 1534 1536 1537 1537 1538 1539 1540 1541 1541 1542 1543 1543 1544 1545 1545 1546 1546 1546 1546 1547 1547 1548 1549 1550 1551 1552 1553 1553 1554 1555 1555 1557 1558 1559 1560 1560 1561 1562 1562 1563 1563 1564 1564 1564 1565 1565 1565 1566 1566 1567 1567 1567 1567 1567 1567 1567 1567 1567 1567 1567 1567 1567 1567 1567 1567 1567 1566 1567 1567 1567
1513 1514 1516 1517 1518 1520 1522 1523 1524 1525 1527 1528 1529 1530 1532 1533 1535 1536 1536 1537 1538 1539 1539 1540 1541 1542 1542 1543 1544 1544 1544 1545 1545 1545 1545 1546 1546 1547 1548 1549 1550 1551 1552 1552 1553 1554 1555 1555 1556 1557 1558 1559 1560 1560 1561 1561 1561 1562 1562 1563 1563 1563 1563 1564 1564 1564 1565 1565 1564 1564 1565 1565 1565 1565 1566 1565 1565 1565 1564 1564 1564 1564 1564 1564 1564
1515 1516 1518 1519 1520 1521 1522 1524 1525 1526 1527 1528 1529 1530 1531 1533 1534 1535 1536 1536 1537 1538 1538 1539 1540 1540 1541 1542 1543 1543 1543 1543 1544 1544 1544 1545 1545 1546 1546 1547 1547 1548 1549 1550 1550 1551 1552 1553 1554 1554 1555 1556 1557 1557 1558 1558 1559 1559 1560 1560 1560 1560 1561 1561 1561 1562 1562 1562 1562 1562 1563 1563 1563 1563 1563 1562 1562 1562 1562 1562 1562 1561 1561 1561 1562
1517 1519 1520 1521 1522 1523 1524 1525 1526 1527 1528 1529 1529 1530 1531 1532 1533 1534 1535 1536 1536 1537 1538 1538 1539 1539 1540 1541 1542 1542 1542 1542 1542 1542 1543 1543 1544 1544 1545 1545 1546 1546 1546 1547 1547 1548 1549 1550 1551 1551 1552 1553 1554 1555 1555 1555 1556 1556 1556 1557 1557 1557 1558 1558 1558 1558 1558 1559 1559 1559 1560 1560 1560 1560 1560 1560 1560 1559 1559 1559 1559 1558 1558 1558 1558
1520 1521 1522 1523 1524 1525 1526 1527 1528 1529 1529 1530 1531 1531 1532 1533 1533 1534 1535 1535 1536 1537 1537 1538 1538 1539 1540 1541 1541 1541 1540 1540 1540 1540 1541 1541 1542 1542 1543 1543 1543 1544 1545 1545 1546 1546 1547 1547 1548 1548 1549 1550 1551 1551 1552 1552 1553 1553 1553 1554 1554 1554 1554 1555 1555 1555 1555 1555 1555 1556 1556 1556 1556 1556 1556 1556 1556 1556 1555 1555 1556 1555 1555 1555 1554
1521 1522 1523 1524 1525 1526 1527 1528 1529 1530 1530 1531 1531 1532 1533 1534 1534 1535 1535 1535 1536 1536 1537 1537 1538 1538 1538 1539 1539 1539 1539 1539 1539 1539 1539 1539 1539 1540 1540 1540 1541 1541 1542 1543 1543 1543 1544 1544 1545 1545 1545 1547 1548 1548 1548 1548 1549 1549 1550 1550 1550 1550 1551 1552 1551 1551 1551 1551 1551 1551 1552 1552 1552 1553 1553 1553 1553 1552 1551 1552 1554 1554 1553 1553 1552
1523 1523 1524 1525 1526 1527 1528 1529 1529 1530 1531 1531 1531 1532 1533 1534 1535 1535 1535 1536 1536 1536 1536 1536 1536 1537 1537 1537 1537 1537 1537 1537 1537 1537 1537 1537 1537 1537 1537 1538 1538 1539 1539 1539 1540 1540 1540 1541 1542 1542 1542 1543 1544 1544 1544 1544 1545 1545 1546 1545 1544 1545 1547 1547 1546 1546 1547 1547 1547 1547 1547 1548 1549 1549 1550 1551 1550 1550 1549 1549 1550 1551 1550 1549 1549
1524 1525 1526 1526 1527 1527 1528 1529 1529 1530 1530 1530 1531 1532 1532 1533 1534 1534 1534 1535 1535 1535 1535 1535 1535 1535 1535 1535 1535 1536 1536 1536 1536 1536 1535 1535 1535 1535 1535 1535 1536 1536 1536 1536 1536 1537 1537 1538 1538 1539 1539 1539 1540 1540 1540 1539 1540 1540 1540 1540 1540 1541 1542 1542 1542 1542 1543 1543 1543 1543 1543 1544 1545 1545 1546 1547 1547 1547 1547 1546 1547 1547 1547 1546 1545
1526 1526 1526 1527 1527 1527 1528 1528 1528 1529 1529 1529 1530 1530 1531 1531 1532 1532 1532 1532 1532 1533 1533 1533 1533 1533 1533 1533 1534 1534 1534 1534 1534 1534 1533 1533 1533 1533 1533 1533 1533 1532 1533 1533 1533 1533 1534 1534 1535 1536 1536 1536 1536 1537 1536 1536 1535 1535 1535 1536 1536 1537 1537 1537 1538 1538 1538 1538 1538 1539 1539 1540 1541 1542 1543 1543 1543 1543 1543 1543 1544 1545 1545 1544 1543
1526 1526 1526 1526 1526 1527 1527 1527 1527 1527 1527 1528 1528 1529 1529 1529 1529 1529 1529 1529 1529 1529 1530 1530 1530 1531 1531 1531 1531 1531 1531 1532 1532 1532 1531 1531 1530 1530 1530 1530 1529 1529 1528 1529 1529 1529 1530 1530 1531 1532 1533 1533 1533 1533 1533 1532 1531 1531 1532 1532 1533 1532 1532 1533 1534 1534 1534 1534 1534 1534 1535 1536 1537 1538 1539 1539 1540 1539 1539 1540 1541 1542 1543 1543 1543
1526 1526 1526 1526 1525 1525 1525 1525 1525 1525 1525 1525 1526 1526 1526 1526 1526 1526 1526 1526 1526 1527 1527 1527 1527 1527 1528 1528 1528 1528 1528 1528 1528 1528 1528 1528 1527 1526 1526 1526 1526 1525 1524 1524 1524 1525 1525 1526 1527 1528 1528 1529 1529 1529 1529 1528 1528 1528 1528 1529 1529 1528 1528 1528 1529 1530 1530 1531 1531 1531 1531 1532 1533 1534 1534 1535 1535 1535 1536 1537 1539 1541 1543 1544 1542
1526 1526 1526 1525 1525 1525 1524 1524 1524 1524 1524 1524 1524 1524 1524 1524 1524 1524 1524 1524 1524 1525 1525 1524 1524 1524 1524 1524 1525 1524 1524 1524 1524 1524 1523 1523 1524 1523 1522 1521 1521 1521 1520 1520 1520 1520 1520 1520 1521 1522 1523 1523 1524 1524 1524 1524 1524 1524 1524 1525 1525 1525 1524 1524 1525 1525 1526 1526 1527 1528 1528 1528 1528 1529 1530 1530 1531 1533 1535 1536 1537 1540 1542 1543 1541
1525 1525 1525 1524 1524 1524 1524 1523 1523 1523 1523 1523 1523 1523 1523 1523 1523 1523 1523 1523 1523 1523 1522 1522 1521 1521 1520 1520 1520 1520 1520 1520 1520 1520 1519 1519 1519 1519 1519 1518 1517 1516 1516 1515 1515 1515 1514 1515 1515 1516 1517 1518 1519 1519 1519 1520 1520 1520 1520 1520 1520 1520 1520 1520 1520 1520 1520 1521 1522 1523 1524 1524 1524 1526 1527 1528 1529 1532 1533 1534 1536 1538 1540 1539 1539
1525 1524 1524 1524 1523 1523 1523 1523 1522 1522 1522 1522 1521 1521 1521 1521 1521 1521 1520 1520 1520 1519 1519 1519 1518 1518 1517 1516 1516 1516 1516 1515 1515 1515 1515 1514 1514 1514 1514 1514 1514 1513 1512 1511 1511 1510 1510 1510 1510 1510 1511 1512 1513 1513 1514 1514 1515 1515 1516 1516 1515 1516 1516 1516 1516 1515 1515 1516 1517 1518 1519 1520 1521 1522 1523 1525 1527 1529 1531 1532 1535 1536 1535 1535 1536
1524 1523 1523 1523 1522 1522 1522 1522 1521 1521 1521 1520 1520 1519 1519 1518 1518 1518 1518 1517 1517 1517 1516 1516 1515 1515 1514 1513 1513 1512 1512 1512 1511 1511 1511 1510 1510 1509 1509 1509 1509 1509 1508 1508 1507 1506 1505 1505 1505 1506 1506 1507 1508 1508 1508 1509 1510 1510 1511 1511 1511 1511 1511 1511 1511 1511 1511 1512 1512 1513 1514 1517 1519 1521 1522 1523 1525 1527 1529 1531 1533 1533 1531 1531 1533
1523 1523 1522 1522 1521 1521 1520 1520 1520 1519 1519 1518 1518 1517 1517 1516 1516 1516 1515 1515 1514 1514 1514 1513 1512 1511 1511 1510 1509 1508 1508 1508 1508 1508 1508 1507 1506 1505 1504 1504 1504 1504 1505 1504 1503 1502 1502 1502 1502 1502 1502 1503 1503 1503 1504 1504 1505 1506 1506 1506 1507 1507 1507 1507 1507 1507 1507 1508 1508 1510 1511 1514 1517 1521 1524 1524 1523 1524 1526 1528 1530 1530 1529 1529 1531
1522 1522 1521 1521 1520 1520 1519 1519 1518 1518 1517 1517 1517 1517 1516 1515 1515 1515 1514 1514 1513 1512 1511 1510 1510 1509 1507 1506 1505 1504 1503 1504 1504 1504 1504 1503 1502 1501 1500 1500 1500 1500 1501 1501 1499 1499 1499 1499 1499 1499 1499 1499 1499 1499 1499 1500 1500 1501 1502 1502 1502 1503 1503 1503 1503 1503 1503 1503 1504 1506 1508 1511 1513 1517 1521 1522 1522 1522 1524 1525 1526 1526 1526 1527 1529
1522 1521 1520 1520 1519 1519 1519 1518 1518 1517 1517 1517 1517 1517 1516 1515 1515 1515 1514 1514 1512 1511 1510 1509 1508 1507 1505 1505 1504 1503 1501 1501 1501 1500 1500 1499 1498 1497 1496 1496 1495 1496 1497 1497 1495 1495 1495 1495 1495 1496 1496 1495 1495 1495 1495 1495 1496 1496 1497 1498 1498 1498 1498 1499 1499 1499 1499 1500 1501 1503 1506 1508 1511 1514 1517 1518 1519 1520 1522 1523 1523 1524 1524 1525 1527
1522 1521 1520 1520 1519 1519 1519 1518 1518 1518 1517 1517 1517 1517 1517 1516 1516 1515 1514 1514 1512 1511 1510 1508 1507 1506 1505 1504 1503 1502 1500 1499 1498 1497 1496 1496 1495 1494 1493 1493 1492 1492 1493 1492 1491 1491 1492 1492 1492 1493 1493 1492 1492 1492 1491 1491 1492 1492 1493 1494 1494 1495 1495 1495 1496 1496 1497 1498 1500 1502 1505 1507 1509 1512 1514 1516 1518 1519 1520 1521 1521 1522 1522 1524 1526
1522 1521 1520 1520 1519 1519 1518 1518 1518 1517 1517 1517 1516 1516 1516 1515 1515 1515 1514 1513 1512 1510 1509 1507 1507 1506 1504 1503 1501 1499 1498 1497 1495 1494 1494 1493 1492 1491 1490 1489 1489 1489 1490 1489 1488 1488 1489 1489 1489 1490 1490 1490 1490 1489 1489 1489 1489 1489 1490 1491 1491 1492 1492 1493 1494 1494 1494 1495 1497 1500 1503 1506 1508 1511 1513 1515 1517 1518 1518 1519 1519 1520 1521 1523 1524
1521 1520 1520 1519 1518 1518 1517 1517 1517 1517 1516 1516 1516 1515 1514 1514 1513 1512 1512 1511 1510 1509 1507 1506 1505 1505 1503 1502 1500 1498 1496 1495 1494 1492 1491 1491 1490 1489 1488 1487 1487 1487 1487 1486 1486 1486 1486 1486 1486 1486 1486 1486 1486 1486 1486 1486 1487 1487 1488 1488 1489 1489 1490 1491 1492 1493 1494 1495 1498 1499 1501 1504 1507 1509 1511 1513 1515 1516 1517 1517 1518 1519 1521 1522 1522
1520 1520 1519 1518 1517 1517 1516 1516 1516 1516 1516 1515 1515 1514 1514 1513 1512 1510 1509 1508 1507 1507 1506 1505 1504 1504 1502 1501 1499 1497 1495 1494 1492 1491 1490 1488 1487 1487 1486 1486 1486 1485 1485 1485 1484 1484 1484 1483 1483 1483 1483 1483 1483 1483 1483 1484 1484 1485 1485 1486 1486 1487 1488 1488 1490 1492 1494 1497 1499 1500 1502 1504 1506 1508 1509 1511 1513 1514 1515 1516 1517 1518 1519 1520 1520
1521 1520 1519 1518 1517 1516 1516 1516 1516 1516 1516 1515 1515 1514 1514 1513 1512 1510 1508 1507 1505 1505 1505 1504 1503 1503 1501 1500 1498 1496 1494 1492 1491 1489 1488 1487 1486 1485 1484 1484 1484 1483 1483 1482 1482 1481 1481 1481 1481 1481 1481 1481 1481 1481 1481 1481 1482 1482 1483 1484 1484 1485 1486 1487 1489 1491 1495 1499 1501 1503 1504 1505 1507 1508 1509 1510 1511 1512 1514 1515 1517 1517 1518 1518 1518
1521 1520 1519 1518 1517 1517 1516 1516 1516 1516 1516 1515 1515 1515 1514 1513 1512 1511 1509 1508 1506 1505 1504 1504 1503 1502 1501 1500 1498 1495 1493 1491 1489 1487 1486 1485 1484 1483 1482 1482 1482 1481 1481 1481 1480 1479 1479 1479 1479 1479 1478 1478 1478 1479 1479 1479 1480 1480 1481 1482 1482 1484 1485 1488 1491 1493 1495 1499 1503 1505 1506 1506 1507 1508 1510 1511 1511 1512 1513 1515 1516 1516 1516 1516 1517
1521 1520 1519 1518 1517 1517 1517 1516 1516 1516 1516 1516 1516 1515 1514 1514 1513 1512 1510 1509 1508 1506 1505 1504 1503 1502 1501 1499 1497 1495 1492 1490 1487 1486 1485 1484 1483 1482 1481 1480 1480 1479 1479 1479 1478 1478 1477 1477 1477 1477 1476 1476 1476 1476 1477 1477 1478 1478 1479 1481 1483 1484 1486 1489 1492 1495 1497 1499 1503 1506 1506 1507 1508 1509 1510 1511 1512 1512 1513 1514 1515 1515 1515 1515 1515
1520 1520 1519 1518 1517 1517 1517 1517 1517 1516 1516 1516 1516 1516 1515 1514 1513 1513 1511 1510 1509 1507 1506 1504 1503 1501 1500 1498 1496 1494 1492 1489 1487 1485 1484 1483 1481 1480 1479 1478 1478 1477 1477 1477 1476 1476 1476 1476 1475 1475 1474 1474 1473 1474 1474 1475 1476 1478 1480 1482 1483 1486 1488 1490 1492 1495 1498 1500 1504 1506 1507 1507 1508 1509 1510 1511 1512 1513 1514 1514 1514 1513 1514 1514 1515
1521 1520 1519 1518 1517 1517 1517 1517 1516 1516 1516 1516 1516 1516 1516 1515 1514 1513 1511 1510 1509 1507 1506 1504 1502 1501 1499 1497 1496 1494 1492 1490 1487 1486 1484 1482 1481 1479 1478 1477 1477 1476 1475 1475 1475 1474 1474 1475 1474 1474 1473 1473 1472 1472 1473 1474 1476 1479 1481 1482 1484 1486 1488 1491 1494 1497 1499 1501 1504 1506 1507 1508 1508 1509 1510 1511 1512 1513 1513 1513 1513 1513 1513 1514 1515
1521 1520 1519 1518 1517 1516 1516 1516 1516 1516 1516 1516 1516 1516 1515 1514 1514 1512 1511 1510 1509 1507 1505 1504 1502 1500 1499 1497 1495 1493 1492 1490 1488 1486 1485 1483 1482 1480 1479 1478 1477 1476 1475 1475 1474 1474 1474 1475 1474 1474 1474 1473 1473 1473 1474 1476 1478 1480 1482 1484 1485 1487 1489 1492 1495 1498 1500 1502 1504 1506 1508 1508 1508 1509 1510 1510 1511 1512 1512 1512 1512 1513 1514 1515 1515
1521 1520 1519 1518 1517 1516 1515 1515 1515 1515 1515 1515 1515 1515 1514 1514 1513 1512 1511 1509 1508 1507 1505 1504 1502 1501 1499 1497 1496 1494 1492 1491 1489 1488 1486 1485 1484 1483 1481 1480 1479 1478 1477 1476 1476 1475 1475 1475 1475 1475 1475 1475 1475 1476 1477 1478 1480 1482 1483 1485 1487 1489 1491 1494 1496 1498 1500 1502 1505 1507 1508 1508 1508 1509 1509 1510 1511 1512 1512 1512 1513 1514 1514 1514 1513
1520 1520 1519 1518 1516 1516 1515 1514 1514 1514 1513 1514 1514 1513 1513 1513 1513 1512 1510 1509 1508 1507 1506 1504 1503 1501 1499 1498 1496 1495 1493 1492 1490 1489 1488 1487 1485 1484 1483 1482 1480 1479 1478 1478 1477 1476 1476 1476 1476 1476 1477 1477 1478 1479 1481 1482 1483 1484 1486 1488 1490 1492 1493 1495 1497 1499 1501 1504 1506 1507 1508 1508 1508 1509 1510 1511 1511 1511 1512 1512 1513 1514 1513 1512 1511
1520 1520 1519 1517 1516 1515 1514 1513 1513 1512 1512 1512 1512 1512 1512 1512 1512 1511 1510 1509 1508 1507 1506 1504 1503 1501 1500 1499 1497 1496 1494 1492 1491 1490 1489 1488 1486 1485 1484 1483 1482 1481 1480 1479 1478 1478 1477 1477 1478 1479 1479 1480 1481 1483 1484 1486 1487 1488 1489 1491 1492 1494 1495 1496 1499 1501 1504 1506 1507 1508 1508 1508 1509 1510 1510 1511 1511 1511 1511 1512 1512 1512 1512 1511 1510
1520 1519 1518 1517 1516 1515 1514 1512 1512 1511 1510 1510 1511 1511 1511 1511 1511 1510 1510 1509 1508 1506 1505 1504 1503 1501 1500 1499 1498 1496 1495 1493 1492 1491 1490 1489 1488 1487 1486 1485 1484 1483 1482 1481 1481 1480 1480 1480 1481 1482 1482 1483 1484 1486 1487 1488 1489 1491 1492 1493 1494 1495 1496 1498 1501 1504 1506 1508 1508 1508 1509 1509 1510 1510 1510 1510 1510 1510 1511 1511 1511 1511 1511 1511 1510
1519 1519 1518 1517 1516 1515 1513 1512 1511 1510 1509 1509 1510 1510 1510 1510 1510 1510 1509 1509 1508 1506 1505 1504 1503 1502 1501 1500 1498 1497 1495 1494 1493 1492 1491 1490 1489 1488 1487 1486 1486 1485 1484 1483 1483 1482 1482 1483 1484 1484 1485 1486 1487 1488 1490 1491 1492 1493 1494 1495 1496 1497 1499 1501 1504 1506 1507 1508 1508 1508 1509 1509 1510 1510 1510 1510 1510 1510 1511 1511 1512 1512 1511 1511 1510
1519 1518 1517 1517 1516 1514 1513 1512 1511 1510 1509 1509 1510 1509 1509 1509 1509 1509 1509 1509 1508 1507 1506 1505 1504 1503 1502 1500 1499 1498 1496 1495 1494 1493 1492 1491 1490 1489 1488 1488 1487 1487 1486 1485 1485 1485 1485 1486 1486 1487 1488 1489 1490 1491 1492 1493 1494 1495 1496 1497 1498 1499 1501 1503 1505 1506 1507 1507 1508 1508 1508 1509 1509 1509 1510 1509 1510 1510 1511 1512 1512 1511 1510 1510 1510
1519 1518 1517 1516 1515 1514 1513 1512 1511 1510 1510 1509 1509 1508 1508 1508 1508 1509 1509 1509 1508 1507 1506 1506 1505 1504 1503 1501 1500 1499 1498 1496 1495 1494 1493 1492 1491 1490 1490 1489 1489 1488 1488 1487 1487 1488 1488 1488 1489 1490 1491 1491 1492 1493 1494 1495 1496 1497 1498 1499 1500 1501 1503 1504 1505 1506 1506 1507 1507 1508 1508 1509 1509 1509 1509 1510 1510 1511 1511 1511 1510 1510 1509 1510 1510
1518 1518 1517 1516 1515 1514 1514 1512 1511 1510 1510 1509 1509 1508 1508 1508 1509 1509 1509 1509 1508 1508 1507 1507 1506 1505 1504 1502 1501 1500 1499 1499 1497 1496 1495 1494 1493 1492 1492 1491 1490 1490 1489 1489 1489 1490 1491 1491 1492 1493 1493 1494 1495 1496 1497 1497 1498 1499 1500 1501 1502 1503 1504 1504 1505 1505 1506 1506 1507 1508 1508 1508 1509 1509 1509 1509 1510 1510 1510 1510 1510 1510 1510 1510 1511
1517 1517 1517 1516 1515 1515 1514 1513 1512 1511 1510 1510 1509 1509 1509 1509 1509 1509 1509 1509 1508 1508 1508 1507 1506 1506 1505 1504 1503 1502 1502 1501 1500 1499 1498 1497 1496 1495 1495 1494 1493 1493 1492 1492 1492 1493 1494 1494 1495 1496 1496 1497 1497 1498 1499 1499 1500 1501 1501 1502 1502 1503 1503 1504 1504 1505 1505 1506 1507 1507 1508 1508 1508 1508 1509 1509 1509 1509 1510 1510 1510 1510 1510 1511 1511
1517 1517 1517 1516 1516 1515 1514 1513 1512 1512 1511 1511 1510 1510 1509 1510 1510 1510 1510 1509 1509 1509 1508 1508 1507 1507 1506 1506 1505 1504 1504 1503 1502 1501 1501 1500 1499 1499 1498 1497 1497 1497 1496 1496 1496 1496 1497 1497 1497 1498 1498 1498 1499 1500 1500 1501 1501 1502 1502 1502 1502 1503 1503 1503 1504 1505 1505 1506 1506 1507 1507 1508 1508 1508 1509 1509 1509 1510 1510 1511 1511 1511 1511 1511 1512
1516 1516 1516 1516 1516 1515 1514 1513 1513 1513 1512 1512 1511 1511 1510 1510 1511 1510 1510 1509 1509 1509 1509 1508 1508 1508 1508 1507 1507 1506 1505 1505 1504 1503 1503 1502 1501 1501 1500 1500 1499 1499 1499 1499 1499 1499 1499 1499 1499 1499 1500 1500 1501 1501 1502 1502 1502 1502 1502 1502 1503 1503 1503 1504 1504 1505 1505 1506 1507 1507 1508 1508 1508 1509 1509 1509 1510 1510 1511 1511 1511 1511 1511 1512 1512